Location: Bernay
(48.6766°N, 2.9386°E)
Time: 19:03:54
(UTC+00:00)

NOSS 3-4 (C) - Pass Details

Date: 12 January 2026
Orbit: 773 x 1438 km, 63.4° (Epoch: 26 December)

Event Time Altitude Azimuth Distance (km) Brightness Sun altitude
Rises 17:31:49 0° 185° (S) 3,235 6.6 -12.1°
Reaches altitude 10° 17:34:25 10° 174° (S) 2,324 5.7 -12.5°
Maximum altitude 17:38:53 29° 115° (ESE) 1,453 4.1 -13.2°
Enters shadow 17:41:36 19° 73° (ENE) 1,873 4.3 -13.6°
